sat.trackr.live / text

‹ back to catalog

SHIYAN-20C (SY-20C)

NORAD 54214 · 2022-142A

PAYLOAD ACTIVE UNKNOWN

§ Identity

Operator
Country
PRC
Launch date
2022-10-29
Launch site
JSC
Launch vehicle
Mass (kg)
RCS (m²)

External: N2YO · Heavens-Above · Gunter

§ Orbital elements

Epoch: 2026-05-25T03:53:01.337856Z

Period
100.73 min
Inclination
59.9978°
Eccentricity
0.0008425
Mean motion
14.29512834 rev/d
Perigee alt
787.3 km
Apogee alt
799.4 km
Semi-major
7,171.5 km
B*
5.6835e-5
RAAN
16.4468°
Arg perigee
298.8721°
Mean anomaly
61.1469°
Rev number
18,640

§ Raw data

SHIYAN-20C (SY-20C)1 54214U 22142A   26145.16182104  .00000009  00000+0  56835-4 0  99972 54214  59.9978  16.4468 0008425 298.8721  61.1469 14.29512834186405

JSON: /api/v1/satellites/54214 · /tle

For live sub-satellite position, see the globe view (requires WebGL).

§ Visibility from observer

Set your observer location to see the next 7 days of passes ≥ 10°. The values pass through the URL so the page stays shareable.

No JS? Fill the form by hand. The geolocation button needs JavaScript.